RH
96 100 100 100 100 100 100 100 100 100 100 100 100 100 100 100 100 100 100 100 100 100 100 100 100 100 100 100 100 100 96 94 100 100 85 95 99 100 94 86 79 74 67
96 100 100 100 100 100 100 100 100 100 100 100 100 100 100 100 100 100 100 97 90 98 100 100 100 100 100 100 100 100 100 100 100 100 100 100 95 100 93 82 90 76 83
64 73 86 93 83 82 82 89 75 78 96 100 87 82 98 100 96 100 100 100 100 100 100 100 100 100 100 100 100 100 100 100 99 100 100 100 95 90 85 93 79 68 63
78 78 77 72 74 76 73 66 62 69 75 73 78 81 63 58 68 82 92 83 69 78 81 78 97 100 100 100 100 100 100 100 100 100 96 94 93 84 91 89 71 70 55
51 46 43 44 44 48 47 42 40 43 41 39 42 42 42 41 46 50 57 59 61 66 78 99 100 100 100 100 100 100 95 92 100 98 98 95 92 93 100 85 77 64 52
58 56 46 37 38 37 36 38 30 28 27 27 28 33 38 38 41 44 50 50 62 82 87 94 100 100 100 100 100 98 100 100 98 100 100 100 100 95 99 82 77 69 48
57 54 41 36 26 18 18 20 20 18 16 17 17 19 23 31 39 42 56 43 63 70 70 72 81 96 100 100 100 100 100 100 100 100 100 100 100 92 79 95 91 58 46
29 25 22 18 20 19 16 15 14 13 12 13 13 14 17 22 26 35 24 38 42 55 78 84 82 98 100 100 100 100 100 100 100 100 100 100 100 100 97 92 85 55 54
20 20 21 21 18 15 14 12 11 11 12 11 11 11 12 14 19 26 23 37 54 53 66 83 81 98 100 100 100 100 100 100 100 100 100 100 100 96 95 91 62 63 65
24 23 20 16 13 12 13 13 12 13 12 12 12 13 13 15 18 21 25 33 46 57 64 68 90 100 100 100 100 100 100 100 100 100 100 100 98 98 90 68 63 76 61
15 15 15 13 12 13 14 14 14 14 14 14 13 14 14 14 17 26 30 34 44 55 70 78 90 100 100 100 100 100 100 100 100 100 100 96 98 91 74 72 76 72 50
13 16 16 14 13 14 15 17 16 16 18 16 16 16 16 19 19 22 25 31 46 59 77 84 87 94 100 100 100 100 100 99 98 93 84 95 95 75 80 79 92 58 34
14 15 15 15 14 14 16 19 18 18 21 22 23 23 22 25 33 34 32 44 58 64 69 80 92 98 97 100 100 98 97 96 89 87 90 90 77 78 90 93 66 37 32
15 15 16 16 14 14 16 16 18 18 21 26 32 43 43 37 40 46 50 52 67 74 81 78 78 82 91 90 86 88 84 83 89 91 85 86 91 92 87 69 45 33 22
15 14 14 13 12 12 14 16 16 18 20 26 40 46 49 63 54 50 57 60 71 75 77 78 76 77 83 87 88 90 92 92 94 93 98 97 94 87 59 37 32 22 18
13 11 10 11 11 10 14 18 17 18 20 24 32 40 50 49 54 53 54 62 67 68 74 73 75 76 83 87 90 98 95 98 100 97 99 90 69 48 35 26 21 17 15
11 8 10 11 10 9 11 15 19 16 20 21 23 31 38 46 48 50 57 67 70 70 78 83 85 87 89 94 95 95 96 100 98 82 66 54 40 29 22 20 18 15 15
15 11 11 11 9 10 11 14 15 19 17 20 21 24 33 45 48 52 62 70 73 79 80 79 80 81 89 96 95 92 97 70 61 48 36 28 23 22 19 18 16 16 16
13 10 9 10 12 12 13 17 19 22 26 20 20 24 28 29 32 43 50 59 66 67 67 70 76 79 81 77 70 69 53 36 38 27 22 22 20 20 21 20 20 18 18
15 15 14 11 12 14 16 20 25 28 31 34 33 32 30 28 27 33 34 31 28 28 30 34 36 36 37 34 33 35 25 27 21 19 19 21 21 21 20 20 21 22 21
19 19 17 16 16 17 18 20 24 28 33 37 39 37 35 31 28 26 26 25 25 25 24 21 20 20 19 19 18 18 18 20 22 21 20 20 20 20 20 21 21 20 21
25 22 21 21 23 24 24 24 24 24 24 24 24 24 23 22 21 21 20 19 18 17 17 16 18 18 20 21 21 21 23 22 22 22 22 21 20 20 20 20 20 22 23
30 29 29 30 30 29 29 28 27 27 26 26 25 24 23 23 23 23 23 22 22 21 20 20 20 20 19 19 19 18 18 18 18 17 16 16 15 15 16 16 16 16 15
37 36 35 35 32 30 29 28 26 25 23 21 20 18 16 16 16 16 16 16 15 15 15 15 15 15 15 14 14 15 15 14 14 14 14 15 15 14 14 14 13 13 12
43 40 36 33 33 33 32 30 27 23 20 17 15 14 13 12 12 12 12 13 12 12 12 12 12 13 13 13 12 12 13 13 12 13 13 13 12 12 11 11 11 11 10
43 40 38 37 34 30 30 28 25 22 19 16 13 11 11 11 10 10 10 10 11 11 10 10 10 10 11 11 11 11 10 10 10 10 10 10 11 10 10 10 9 9 8
Wind_Speed
102 98 97 98 97 97 97 93 92 91 94 95 96 100 101 103 100 92 91 98 98 97 101 107 112 118 116 111 112 102 99 101 97 100 101 97 95 97 99 101 96 98 97
105 107 107 109 110 108 107 106 102 103 102 108 107 111 112 112 109 110 114 119 113 115 118 119 118 115 110 102 100 91 93 100 101 97 96 92 98 98 94 94 95 94 96
98 102 108 110 113 113 114 114 115 116 115 113 119 118 121 120 121 123 121 120 122 123 120 113 105 100 97 95 98 100 102 103 96 95 94 95 93 90 90 91 92 93 93
97 99 102 106 110 116 120 120 119 121 124 125 124 126 122 122 124 125 123 118 106 108 102 101 98 97 98 101 104 104 102 99 98 94 93 88 87 86 88 90 92 93 87
97 100 103 106 113 117 117 114 110 109 108 107 109 109 106 104 104 106 106 103 99 93 90 90 92 93 94 97 99 99 95 93 88 84 83 84 84 85 89 93 96 95 81
96 97 98 95 93 96 96 93 92 90 87 85 85 86 88 87 88 89 90 90 83 83 84 83 85 86 86 87 89 88 85 84 82 80 81 83 86 88 92 96 95 90 77
89 91 87 86 84 81 79 80 80 77 75 72 71 71 73 76 78 81 82 81 80 79 81 81 81 80 81 86 86 84 82 81 80 81 81 83 86 91 92 94 95 88 78
86 83 83 79 77 74 70 72 71 69 66 64 63 63 65 66 71 73 74 67 73 67 71 75 74 74 76 78 77 76 80 79 78 80 83 86 86 90 94 94 96 84 75
80 77 77 75 72 68 67 66 65 62 59 58 56 55 57 60 64 71 68 63 69 69 70 71 71 70 72 72 74 75 78 79 80 83 84 90 93 96 92 95 89 82 81
75 72 70 65 61 58 57 57 55 53 52 48 46 48 48 53 58 64 62 65 63 66 67 68 65 67 70 70 72 77 79 81 82 87 89 92 88 89 91 89 83 86 81
62 61 61 58 54 50 48 49 47 46 45 42 39 41 46 47 51 56 59 59 61 62 65 65 65 63 68 71 74 78 81 82 85 88 90 86 87 89 88 87 86 86 80
56 56 56 55 51 45 43 44 43 41 40 39 37 38 40 43 46 51 52 54 57 59 61 63 62 65 69 71 75 77 79 81 82 82 81 83 87 87 88 86 91 86 74
56 54 52 53 50 44 42 42 44 41 39 39 37 37 36 40 42 45 47 51 55 58 59 62 64 66 67 70 73 77 76 77 80 80 81 84 87 83 88 91 88 78 71
51 50 50 50 51 47 44 44 44 44 41 40 39 41 41 40 43 44 48 49 52 53 58 60 62 64 65 67 70 71 72 74 77 80 82 81 84 89 89 90 83 75 67
45 46 47 49 48 44 43 44 44 45 43 42 43 43 43 46 46 46 49 50 52 56 59 60 61 62 64 67 69 71 75 76 77 80 84 86 88 91 89 80 74 67 63
44 43 45 46 44 38 36 40 44 44 44 45 45 45 47 48 50 49 49 51 53 56 58 59 62 63 66 68 70 73 77 79 81 83 86 87 86 82 77 70 65 63 59
42 42 39 40 41 39 35 37 42 43 43 44 44 44 46 48 50 52 52 54 56 58 60 63 65 67 70 72 76 79 80 81 83 83 82 79 75 71 66 62 60 57 54
40 38 34 35 35 34 32 34 37 41 41 43 43 41 43 46 48 50 54 58 61 63 66 68 70 71 74 75 76 79 82 81 77 76 73 67 64 62 60 56 52 51 52
35 34 30 29 29 29 30 32 34 35 42 43 42 43 45 46 46 48 51 55 59 62 64 66 68 70 71 73 72 73 72 70 67 65 61 60 58 56 53 51 50 49 48
28 28 28 27 25 25 26 28 30 33 36 41 45 46 47 48 48 48 51 52 54 55 57 59 61 62 64 64 63 64 63 63 59 57 55 54 54 53 52 51 50 50 50
22 22 23 22 21 21 22 24 27 30 34 39 44 47 49 50 50 50 50 51 52 53 54 55 54 55 55 55 56 55 55 54 55 55 55 54 54 53 52 52 53 53 53
19 20 19 18 19 20 21 23 25 28 31 34 37 40 44 46 47 48 49 49 49 49 50 50 50 52 52 53 54 54 55 56 56 56 56 57 57 57 57 57 56 57 57
19 19 19 20 21 23 24 26 28 31 33 35 38 41 43 45 47 48 49 50 51 51 51 52 53 54 55 56 56 57 57 57 58 58 59 59 59 59 59 60 61 61 62
20 21 22 23 25 27 29 32 35 36 38 41 43 45 46 47 48 49 50 51 52 52 53 53 54 55 56 56 57 57 58 59 59 59 59 59 61 61 61 61 62 63 64
22 23 25 26 28 30 33 36 39 41 43 45 45 46 46 46 46 47 47 48 49 50 50 50 51 52 52 53 54 54 55 56 56 57 57 58 59 60 60 60 61 61 62
24 26 27 29 31 33 35 38 41 43 43 44 44 43 42 41 41 42 42 43 43 44 46 47 48 48 48 49 50 51 52 52 53 53 54 54 55 56 56 57 57 58 58
Wind_Direction
275 270 270 271 273 274 274 271 271 267 269 264 264 264 267 267 272 275 270 275 273 272 272 275 278 279 280 280 281 278 279 278 281 281 283 287 287 287 290 291 291 293 296
271 270 270 270 271 271 270 268 268 264 266 264 265 265 264 267 268 273 273 275 276 276 276 276 280 279 279 278 275 274 271 278 280 281 284 285 287 288 287 288 290 293 293
275 275 273 271 269 269 269 267 267 266 263 264 268 267 267 266 270 272 272 272 273 274 275 276 272 270 272 267 268 270 273 276 279 282 282 284 286 285 287 288 291 293 298
280 281 280 279 277 274 273 274 274 273 270 269 270 271 271 270 271 270 271 272 274 271 270 270 268 268 266 267 270 273 275 277 279 280 283 283 285 286 288 289 293 297 303
279 278 276 276 275 275 276 276 276 274 273 272 271 270 270 271 271 272 271 271 268 268 266 265 265 265 266 267 269 272 275 278 280 282 284 284 285 288 287 290 295 301 302
285 282 280 280 280 278 279 281 279 276 274 273 271 269 269 268 267 267 266 266 266 264 263 262 263 265 267 268 269 272 275 277 280 282 281 282 284 286 288 291 299 300 303
282 282 284 282 281 281 281 279 279 279 277 273 270 268 265 261 260 261 262 264 263 262 262 262 261 262 263 265 268 272 275 276 278 279 280 281 283 287 292 297 296 300 301
286 286 286 286 286 285 284 281 279 278 278 274 268 263 261 259 258 256 260 259 260 261 259 259 259 261 262 264 267 270 270 273 276 276 277 282 286 287 291 293 295 300 301
288 287 286 287 285 284 281 279 278 277 274 271 269 264 258 255 254 254 258 255 257 257 258 260 261 261 261 264 264 265 268 271 272 273 277 279 282 287 290 291 296 299 303
286 284 283 283 282 281 278 277 276 274 274 272 269 263 256 252 251 253 255 254 256 257 257 259 259 261 262 262 263 264 266 268 270 273 277 281 284 287 289 294 297 301 302
282 285 287 285 283 281 279 277 276 275 274 270 266 262 259 254 251 251 253 255 255 256 256 257 258 260 260 262 262 263 266 269 272 274 279 280 283 287 290 294 298 300 300
287 288 286 284 283 281 279 278 276 274 272 270 265 261 258 255 255 254 256 256 255 255 256 258 258 258 261 262 262 264 268 271 274 276 280 282 283 288 292 295 298 297 299
288 285 283 282 281 278 277 274 274 273 270 270 268 267 263 258 254 255 255 255 255 255 256 257 257 258 261 262 264 267 271 273 277 278 282 284 288 290 294 295 293 296 295
283 283 281 277 278 276 274 274 271 272 268 265 263 261 262 261 259 259 257 258 256 257 256 258 260 261 262 264 267 270 274 276 278 281 284 286 289 292 292 292 294 294 291
284 280 280 279 280 282 280 274 272 270 268 264 261 259 259 260 263 263 261 261 260 258 259 262 264 265 267 271 272 274 277 280 281 285 287 289 289 289 289 291 292 288 286
287 285 283 285 286 285 277 273 274 271 272 269 263 260 261 262 262 265 266 265 264 265 266 268 270 271 272 273 276 278 280 282 284 286 288 287 286 286 289 289 287 285 282
291 290 290 285 281 282 275 268 267 271 270 272 271 270 268 267 268 269 271 270 270 270 270 270 271 273 274 276 277 280 282 284 285 283 283 284 286 285 285 284 283 283 279
293 293 291 286 284 278 272 267 267 270 272 271 272 273 271 270 272 272 271 271 272 272 273 274 275 276 278 280 281 282 282 280 281 282 283 284 283 283 283 282 283 285 282
292 293 292 288 286 281 274 269 268 269 271 274 273 274 275 276 275 274 272 272 272 273 273 274 275 275 276 276 276 276 276 277 280 281 282 282 281 281 281 283 285 285 285
291 293 293 288 286 283 278 272 269 270 272 275 279 280 280 280 279 277 275 274 273 272 272 272 272 272 273 273 276 275 274 278 280 282 281 281 280 281 281 283 283 284 283
292 293 292 293 292 288 282 278 275 273 273 273 274 276 278 279 279 279 279 278 278 277 276 276 275 274 274 275 276 277 278 280 280 281 282 282 281 281 281 282 281 281 282
293 292 295 298 299 296 292 289 286 284 282 280 278 277 278 279 280 281 282 281 280 280 280 279 279 279 279 279 279 280 281 280 281 282 281 281 281 281 282 282 282 281 280
291 295 298 299 298 297 296 294 291 288 286 284 282 281 280 281 281 281 280 280 281 280 280 281 281 281 281 280 281 281 282 282 282 282 282 282 283 283 283 282 282 282 281
292 295 297 299 300 302 301 300 298 296 294 291 290 288 287 285 284 283 282 281 281 281 281 280 280 280 280 281 281 281 281 281 282 282 283 283 284 284 283 282 282 281 281
292 294 297 299 302 303 303 302 300 299 297 295 293 291 290 288 286 285 284 284 283 283 283 282 282 282 282 283 283 283 282 282 283 283 283 283 283 284 284 284 284 284 283
292 295 298 301 302 304 304 303 303 302 301 300 298 296 294 292 290 288 287 286 285 285 285 285 285 284 284 283 284 284 284 285 285 285 285 286 285 285 285 285 284 284 284